Miscellaneous Local Product
Issued by NWS North Platte, NE

Home | Current Version | Previous Version | Text Only | Print | Product List | Glossary On
Versions: 1 2 3 4 5 6 7 8 9 10 11 12 13 14 15 16 17 18 19 20 21 22 23 24 25 26 27 28 29 30 31 32 33 34 35 36 37 38 39 40 41 42 43 44 45 46 47 48 49 50
223
AXUS43 KLBF 300010
MISLBF


WESTERN AND NORTH CENTRAL NEBRASKA HOURLY WEATHER ROUNDUP
NATIONAL WEATHER SERVICE NORTH PLATTE NE
700 PM CDT SAT APR 29 2017

NOTE: "FAIR" INDICATES FEW OR NO CLOUDS BELOW 12,000 FEET WITH NO
SIGNIFICANT WEATHER AND/OR OBSTRUCTIONS TO VISIBILITY.

NOTE: STATIONS NOT REPORTING VARIABLES SUCH AS SKY/WEATHER OR
PRESSURE ARE PROVIDED BY RAWS AND APRS NETWORKS AND ARE NOT UNDER
NATIONAL WEATHER SERVICE QUALITY CONTROL.

...OBSERVATIONS IN AND NEAR THE EASTERN PANHANDLE OF NEBRASKA...

CITY           SKY/WX    TMP DP  RH WIND       PRES   REMARKS
PINE RIDGE     CLOUDY    50  20  30 N12       30.15F
CHADRON        CLOUDY    50  22  33 NE12      30.16F
ALLIANCE       MOSUNNY   48  22  35 NE17G23   30.14S
SIDNEY         CLOUDY    44  19  36 N16G30    30.13R
$$

...OBSERVATIONS IN NORTHERN NEBRASKA AND FAR SOUTHERN SOUTH DAKOTA...

CITY           SKY/WX    TMP DP  RH WIND       PRES   REMARKS
WINNER         FAIR      54  21  27 NE17      30.15R
VALENTINE      CLOUDY    52  15  23 NE15      30.13R
THEDFORD       CLOUDY    48  23  37 NE23      30.12R
AINSWORTH      CLOUDY    49  24  37 NE17      30.11R
O`NEILL        CLOUDY    48  20  32 NE14      30.11R
ORD            CLOUDY    46  29  51 NE14G24   30.06R
BROKEN BOW     CLOUDY    46  26  45 NE15      30.07R
VALENTINE NWR    N/A     48  20  33 NE10G21     N/A
HALSEY           N/A     47  22  37 N8G20       N/A
BUTTE            N/A     50  21  32 N15         N/A
CHAMBERS         N/A     47  25  42 NE6         N/A
EWING            N/A     47  27  46 NE9         N/A
$$

...OBSERVATIONS IN SOUTHWEST NEBRASKA AND FAR NORTHEAST COLORADO...

CITY           SKY/WX    TMP DP  RH WIND       PRES   REMARKS
HOLYOKE        FAIR      45  23  42 NE15      30.10S
IMPERIAL       CLOUDY    41  26  55 NE13      30.08F
OGALLALA       CLOUDY    48  19  32 NE15G22   30.09F
NORTH PLATTE   CLOUDY    46  26  45 NE15      30.07S
MCCOOK         CLOUDY    41  33  73 N17G25    30.05R
LEXINGTON      DRIZZLE   43  32  64 NE16      30.03F
STAPLETON        N/A     44  28  53 NE3G12      N/A
$$

...OBSERVATIONS IN CENTRAL LINCOLN COUNTY AREA...

CITY           SKY/WX    TMP DP  RH WIND       PRES   REMARKS
N.P. AIRPORT   CLOUDY    46  26  45 NE15      30.07S
N.P. DOWNTOWN    N/A     45  27  49 NE12        N/A
N.P. SOUTHEAST   N/A     45  27  48 NE6G13      N/A
N.P. HILLCREST   N/A     45  27  48 NE18G26     N/A
$$

...SOME OBSERVATIONS FROM AROUND THE REGION...

CITY           SKY/WX    TMP DP  RH WIND       PRES   REMARKS
DENVER         LGT SNOW  30  27  88 N22       30.18R VSB 1   WCI  17
LIMON          LGT SNOW  30  29  96 N25G32    30.09S FOG     WCI  16
ASPEN          CLOUDY    35  20  54 NW8       30.04R WCI  29
LARAMIE        CLOUDY    27  18  69 NE6       30.16F WCI  20
CASPER         CLOUDY    42  17  36 NE5       30.18F
CHEYENNE       CLOUDY    32  15  49 NE14      30.16F WCI  22
SCOTTSBLUFF    CLOUDY    45  26  47 N9        30.18F
GRAND ISLAND   CLOUDY    42  36  79 NE23G32   30.00F
OMAHA          LGT RAIN  45  37  73 NE22G32   29.99S
SIOUX FALLS    CLOUDY    51  25  36 NE18      30.10S
PIERRE         CLOUDY    56  13  18 E14       30.16S
RAPID CITY     SUNNY     54  18  24 NE8       30.17F
BISMARCK       SUNNY     62  21  20 VRB7      30.19F
KANSAS CITY    LGT RAIN  45  44  97 NE15      29.84F
HILL CITY      LGT RAIN  39  37  92 N28G36    29.96F FOG     WCI  28
WICHITA        LGT RAIN  47  46  97 N22G28    29.72S FOG
DODGE CITY     LGT RAIN  38  37  97 N30G40    29.82S FOG     WCI  26
OKLAHOMA CITY  DRZL/FOG  50  48  93 NW20      29.62S VSB 3/4
DALLAS         CLOUDY    61  53  75 NW28G33   29.60R
AMARILLO       CLOUDY    34  33  96 N23G32    29.85R WCI  22
$$




USA.gov is the U.S. government's official web portal to all federal, state and local government web resources and services.